W5CGC Weather Reports


Display with metric or nautical units.
time (UTC)temp
F
wind
direction
speed
MPH
gust
MPH
rain 1hr
in
rain 24hr
in
rain mn
in
humidity
%
barometer
mb
20260902191546 97 169 0.0 4.0 0.00 0.00 0.00 29 1013.5
20260902190043 97 168 1.0 4.0 0.00 0.00 0.00 31 1013.7
20260902184542 97 163 1.0 4.0 0.00 0.00 0.00 31 1013.8
20260902183046 96 168 1.0 4.0 0.00 0.00 0.00 33 1014.2
20260902181541 96 154 0.0 4.0 0.00 0.00 0.00 33 1014.6
20260902180105 95 124 0.0 4.0 0.00 0.00 0.00 34 1014.9
20260902174544 94 128 0.0 5.0 0.00 0.00 0.00 34 1015.2
20260902173040 93 181 1.0 5.0 0.00 0.00 0.00 36 1015.3
20260902171549 91 172 1.0 6.0 0.00 0.00 0.00 39 1015.5
20260902170042 90 159 0.0 4.0 0.00 0.00 0.00 39 1015.7
20260902164542 89 149 1.0 4.0 0.00 0.00 0.00 41 1015.8
20260902163043 89 165 1.0 3.0 0.00 0.00 0.00 42 1015.9
20260902161543 88 204 2.0 4.0 0.00 0.00 0.00 43 1016.1
20260902160041 88 174 1.0 3.0 0.00 0.00 0.00 44 1016.1
20260902154540 87 169 1.0 5.0 0.00 0.00 0.00 47 1016.1
20260902153044 86 172 1.0 4.0 0.00 0.00 0.00 47 1016.1
20260902151546 86 0 0.0 1.0 0.00 0.00 0.00 48 1016.1
20260902150041 85 0 0.0 2.0 0.00 0.00 0.00 47 1016.0
20260902144555 85 0 0.0 2.0 0.00 0.00 0.00 48 1016.0
20260902143038 84 0 0.0 1.0 0.00 0.00 0.00 49 1016.2
20260902141540 83 118 0.0 3.0 0.00 0.00 0.00 51 1016.2
20260902140036 83 0 0.0 3.0 0.00 0.00 0.00 52 1016.0
20260902134543 82 104 0.0 1.0 0.00 0.00 0.00 53 1016.0
20260902133038 80 0 0.0 1.0 0.00 0.00 0.00 56 1015.9
20260902131541 79 0 0.0 0.0 0.00 0.00 0.00 58 1015.7
20260902130043 78 0 0.0 0.0 0.00 0.00 0.00 61 1015.6
20260902124542 76 0 0.0 0.0 0.00 0.00 0.00 62 1015.5
20260902123040 76 0 0.0 0.0 0.00 0.00 0.00 62 1015.3
20260902121542 76 0 0.0 0.0 0.00 0.00 0.00 60 1015.1
20260902120045 77 0 0.0 0.0 0.00 0.00 0.00 60 1015.1
20260902114540 78 0 0.0 0.0 0.00 0.00 0.00 58 1015.1
20260902113048 77 0 0.0 0.0 0.00 0.00 0.00 59 1015.2
20260902111545 77 0 0.0 1.0 0.00 0.00 0.00 60 1015.2
20260902110040 77 0 0.0 0.0 0.00 0.00 0.00 59 1015.2
20260902104545 77 0 0.0 0.0 0.00 0.00 0.00 58 1015.1
20260902103042 77 0 0.0 0.0 0.00 0.00 0.00 59 1015.2
20260902101540 77 0 0.0 0.0 0.00 0.00 0.00 58 1015.2
20260902100042 78 0 0.0 0.0 0.00 0.00 0.00 58 1015.1
20260902094537 78 0 0.0 0.0 0.00 0.00 0.00 57 1015.0
20260902093043 79 0 0.0 0.0 0.00 0.00 0.00 55 1015.1
20260902091548 79 0 0.0 0.0 0.00 0.00 0.00 54 1015.1
20260902090037 80 0 0.0 0.0 0.00 0.00 0.00 53 1015.2
20260902084542 81 0 0.0 0.0 0.00 0.00 0.00 51 1015.1
20260902083042 82 0 0.0 0.0 0.00 0.00 0.00 49 1015.1
20260902081540 83 0 0.0 1.0 0.00 0.00 0.00 48 1015.2
20260902080035 84 111 1.0 4.0 0.00 0.00 0.00 47 1015.1
20260902074541 84 0 0.0 0.0 0.00 0.00 0.00 47 1015.1
20260902073040 84 0 0.0 7.0 0.00 0.00 0.00 46 1015.2
20260902071543 85 118 0.0 5.0 0.00 0.00 0.00 46 1015.3
20260902070042 85 112 0.0 4.0 0.00 0.00 0.00 46 1015.3
20260902064551 85 153 1.0 6.0 0.00 0.00 0.00 45 1015.3
20260902063046 86 118 1.0 5.0 0.00 0.00 0.00 45 1015.1
20260902061552 86 156 0.0 8.0 0.00 0.00 0.00 45 1015.0
20260902060038 86 129 0.0 6.0 0.00 0.00 0.00 45 1014.9
20260902054545 86 150 0.0 3.0 0.00 0.00 0.00 44 1014.6
20260902053039 87 118 1.0 5.0 0.00 0.00 0.00 43 1014.4
20260902051543 87 127 2.0 7.0 0.00 0.00 0.00 42 1014.4
20260902050046 86 32 1.0 6.0 0.00 0.00 0.00 43 1014.4
20260902044543 84 141 0.0 3.0 0.00 0.00 0.00 46 1014.3
20260902043038 84 0 0.0 0.0 0.00 0.00 0.00 46 1014.1
20260902041539 84 0 0.0 0.0 0.00 0.00 0.00 45 1014.0
20260902040041 84 0 0.0 0.0 0.00 0.00 0.00 45 1014.0
20260902034555 84 0 0.0 0.0 0.00 0.00 0.00 45 1014.1
20260902033054 84 0 0.0 0.0 0.00 0.00 0.00 44 1014.1
20260902031540 85 0 0.0 0.0 0.00 0.00 0.00 44 1014.0
20260902030044 85 0 0.0 0.0 0.00 0.00 0.00 43 1013.7
20260902024545 86 0 0.0 0.0 0.00 0.00 0.00 41 1013.5
20260902023038 87 0 0.0 0.0 0.00 0.00 0.00 40 1013.4
20260902021538 87 0 0.0 0.0 0.00 0.00 0.00 40 1013.1
20260902020042 88 0 0.0 0.0 0.00 0.00 0.00 40 1013.0
20260902014540 88 0 0.0 0.0 0.00 0.00 0.00 40 1012.9
20260902013040 89 0 0.0 0.0 0.00 0.00 0.00 37 1012.7
20260902011544 90 0 0.0 0.0 0.00 0.00 0.00 36 1012.5
20260902010041 91 0 0.0 0.0 0.00 0.00 0.00 35 1012.5
20260902004541 92 0 0.0 0.0 0.00 0.00 0.00 33 1012.5
20260902003046 94 0 0.0 1.0 0.00 0.00 0.00 31 1012.5
20260902001542 94 0 0.0 2.0 0.00 0.00 0.00 30 1012.7
20260902000040 95 151 0.0 2.0 0.00 0.00 0.00 29 1012.8
20260901234550 96 0 0.0 3.0 0.00 0.00 0.00 28 1012.8
20260901233044 96 171 1.0 3.0 0.00 0.00 0.00 28 1012.9
20260901231541 96 167 0.0 3.0 0.00 0.00 0.00 29 1013.0
20260901230041 96 180 2.0 4.0 0.00 0.00 0.00 29 1013.0
20260901224551 96 0 0.0 3.0 0.00 0.00 0.00 28 1013.0
20260901223040 97 168 0.0 3.0 0.00 0.00 0.00 27 1013.0
20260901221544 97 174 1.0 4.0 0.00 0.00 0.00 26 1013.1
20260901220042 98 166 2.0 5.0 0.00 0.00 0.00 25 1013.1
20260901214545 98 167 1.0 4.0 0.00 0.00 0.00 26 1013.2
20260901213044 98 169 0.0 4.0 0.00 0.00 0.00 26 1013.3
20260901211542 98 174 1.0 4.0 0.00 0.00 0.00 26 1013.4
20260901210041 97 0 0.0 4.0 0.00 0.00 0.00 27 1013.6
20260901204540 97 165 1.0 4.0 0.00 0.00 0.00 27 1013.7
20260901203048 97 171 0.0 5.0 0.00 0.00 0.00 29 1013.8
20260901201540 95 205 2.0 5.0 0.00 0.00 0.00 31 1014.1
20260901200059 96 162 1.0 4.0 0.00 0.00 0.00 30 1014.4
20260901194549 95 217 1.0 5.0 0.00 0.00 0.00 31 1014.4
20260901193044 95 171 2.0 5.0 0.00 0.00 0.00 30 1014.6